Robstown, TX

6:08 AM CDT on August 28, 2016 (GMT -0500)
Robstown

Weather History for KRBO - January, 2013

Change the Weather History Date:

Thursday, January 24, 2013

  Actual Average (KCRP) Record (KCRP)
Temperature  
Mean Temperature 70 °F 57 °F  
Max Temperature 84 °F 67 °F 87 °F (1972)
Min Temperature 55 °F 48 °F 18 °F (1963)
Degree Days  
Heating Degree Days 0 8  
Month to date heating degree days 215  
Since 1 July heating degree days 566  
Cooling Degree Days 4 1  
Month to date cooling degree days 24  
Year to date cooling degree days 24  
Growing Degree Days 20 (Base 50)    
Moisture  
Dew Point 60 °F    
Average Humidity 79    
Maximum Humidity 97    
Minimum Humidity 35    
Precipitation  
Precipitation 0.00 in 0.05 in 1.36 in (2007)
Month to date precipitation 1.20  
Year to date precipitation 1.20  
Snow  
Snow 0.00 in - - ()
Month to date snowfall  
Since 1 July snowfall  
Snow Depth -    
Sea Level Pressure  
Sea Level Pressure 30.21 in    
Wind  
Wind Speed 8 mph (SSE)    
Max Wind Speed 20 mph    
Max Gust Speed 24 mph    
Visibility 8 miles    
Events Fog    
T = Trace of Precipitation, MM = Missing Value Source: NWS Daily Summary

Daily Weather History Graph

Daily Weather History Graph

Search for Another Location

Airport or City:

Trip Planner

Search our weather history database for the weather conditions in past years. The results will help you decide how hot, cold, wet, or windy it might be!

Date:

Astronomy

Jan. 24, 2013 Rise Set
Actual Time 7:20 AM CST 6:05 PM CST
Civil Twilight 6:56 AM CST 6:30 PM CST
Nautical Twilight 6:27 AM CST 6:58 PM CST
Astronomical Twilight 5:59 AM CST 7:26 PM CST
Moon 4:11 PM CST (1/24) 5:16 AM CST (1/24)
Length of Visible Light 11h 34m
Length of Day
10h 44m
Waxing Gibbous, 94% of the Moon is Illuminated
Jan 24
Waxing Gibbous
Jan 26
Full
Feb 3
Last Quarter
Feb 10
New
Feb 17
First Quarter

Hourly Weather History & Observations

Time (CST) Temp. Heat Index Dew Point Humidity Pressure Visibility Wind Dir Wind Speed Gust Speed Precip Events Conditions
12:15 AM 63.5 °F - 60.3 °F 89% 30.26 in 10.0 mi SSE 5.8 mph - N/A   Clear
12:35 AM 63.0 °F - 59.9 °F 90% 30.25 in 10.0 mi SSE 6.9 mph - N/A   Clear
12:55 AM 63.0 °F - 60.1 °F 90% 30.25 in 10.0 mi SSE 8.1 mph - N/A   Clear
1:15 AM 62.2 °F - 59.4 °F 90% 30.25 in 10.0 mi South 5.8 mph - N/A   Clear
1:35 AM 61.2 °F - 58.6 °F 91% 30.26 in 10.0 mi South 4.6 mph - N/A   Clear
1:55 AM 59.9 °F - 57.6 °F 92% 30.26 in 10.0 mi South 4.6 mph - N/A   Clear
2:15 AM 59.7 °F - 57.6 °F 93% 30.25 in 10.0 mi South 4.6 mph - N/A   Clear
2:35 AM 59.2 °F - 57.2 °F 93% 30.25 in 10.0 mi SSW 3.5 mph - N/A   Clear
2:55 AM 58.5 °F - 56.5 °F 93% 30.25 in 5.0 mi SSW 3.5 mph - N/A   Clear
3:15 AM 58.3 °F - 56.8 °F 95% 30.24 in 0.5 mi South 3.5 mph - N/A Fog Fog
3:35 AM 58.1 °F - 56.8 °F 96% 30.24 in 0.2 mi South 4.6 mph - N/A Fog Fog
3:55 AM 58.5 °F - 57.2 °F 96% 30.23 in 0.5 mi SSE 4.6 mph - N/A Fog Fog
4:15 AM 56.3 °F - 55.0 °F 96% 30.24 in 0.2 mi Calm Calm - N/A Fog Fog
4:35 AM 57.7 °F - 56.7 °F 96% 30.24 in 0.5 mi SE 3.5 mph - N/A Fog Fog
4:55 AM 56.5 °F - 55.6 °F 97% 30.23 in 0.2 mi SE 5.8 mph - N/A Fog Fog
5:15 AM 55.8 °F - 54.7 °F 96% 30.23 in 0.2 mi SE 5.8 mph - N/A Fog Fog
5:35 AM 55.6 °F - 54.5 °F 96% 30.23 in 0.2 mi ESE 4.6 mph - N/A Fog Fog
7:15 AM 55.6 °F - 54.7 °F 97% 30.26 in 0.5 mi ESE 3.5 mph - N/A Fog Fog
7:35 AM 56.5 °F - 55.6 °F 97% 30.26 in 0.2 mi Calm Calm - N/A Fog Fog
7:55 AM 56.5 °F - 55.6 °F 97% 30.27 in 0.2 mi Calm Calm - N/A Fog Fog
8:15 AM 57.2 °F - 56.3 °F 97% 30.27 in 0.2 mi Calm Calm - N/A Fog Fog
8:35 AM 58.5 °F - 57.6 °F 97% 30.28 in 0.2 mi Calm Calm - N/A Fog Fog
8:55 AM 59.4 °F - 58.5 °F 97% 30.29 in 0.2 mi Calm Calm - N/A Fog Fog
9:15 AM 60.3 °F - 59.4 °F 97% 30.29 in 0.2 mi Calm Calm - N/A Fog Fog
9:35 AM 61.0 °F - 60.1 °F 97% 30.30 in 0.5 mi Calm Calm - N/A Fog Fog
9:55 AM 63.0 °F - 62.1 °F 97% 30.30 in 10.0 mi Calm Calm - N/A   Mostly Cloudy
10:15 AM 64.8 °F - 63.7 °F 96% 30.31 in 10.0 mi WSW 4.6 mph - N/A   Scattered Clouds
10:35 AM 68.5 °F - 63.5 °F 84% 30.31 in 10.0 mi SW 6.9 mph - N/A   Clear
10:55 AM 71.6 °F - 63.5 °F 76% 30.31 in 10.0 mi SSW 8.1 mph - N/A   Clear
11:15 AM 73.6 °F - 63.5 °F 71% 30.30 in 10.0 mi SW 10.4 mph - N/A   Clear
11:35 AM 75.7 °F - 63.5 °F 66% 30.29 in 10.0 mi South 15.0 mph 24.2 mph N/A   Clear
11:55 AM 76.6 °F - 63.1 °F 63% 30.27 in 10.0 mi South 12.7 mph 18.4 mph N/A   Clear
12:15 PM 78.3 °F - 63.0 °F 59% 30.25 in 10.0 mi SSW 10.4 mph - N/A   Clear
12:35 PM 79.9 °F - 61.5 °F 53% 30.24 in 10.0 mi SSW 13.8 mph 19.6 mph N/A   Clear
12:55 PM 81.0 °F 81.5 °F 59.5 °F 48% 30.22 in 10.0 mi South 16.1 mph - N/A   Clear
1:35 PM 82.6 °F 82.2 °F 57.0 °F 42% 30.18 in 10.0 mi South 16.1 mph 19.6 mph N/A   Clear
1:55 PM 83.3 °F 82.6 °F 56.8 °F 40% 30.17 in 10.0 mi SSE 17.3 mph - N/A   Clear
2:15 PM 84.0 °F 83.0 °F 56.1 °F 38% 30.16 in 10.0 mi SSW 13.8 mph 17.3 mph N/A   Clear
2:35 PM 84.7 °F 83.3 °F 54.3 °F 35% 30.15 in 10.0 mi South 13.8 mph 19.6 mph N/A   Clear
2:55 PM 83.7 °F 83.6 °F 59.9 °F 44% 30.14 in 10.0 mi South 12.7 mph 18.4 mph N/A   Clear
3:15 PM 83.5 °F 83.7 °F 60.4 °F 46% 30.14 in 10.0 mi South 11.5 mph 21.9 mph N/A   Clear
3:35 PM 83.5 °F 83.7 °F 60.8 °F 46% 30.14 in 10.0 mi South 15.0 mph 20.7 mph N/A   Clear
3:55 PM 82.8 °F 83.3 °F 61.3 °F 48% 30.13 in 10.0 mi SSE 13.8 mph 19.6 mph N/A   Clear
4:15 PM 81.9 °F 82.8 °F 62.1 °F 51% 30.13 in 10.0 mi SSE 15.0 mph - N/A   Clear
4:35 PM 80.6 °F 81.8 °F 62.4 °F 54% 30.14 in 10.0 mi SSE 16.1 mph - N/A   Clear
4:55 PM 79.0 °F - 62.6 °F 57% 30.14 in 10.0 mi SE 17.3 mph - N/A   Clear
5:15 PM 77.9 °F - 62.6 °F 59% 30.14 in 10.0 mi SE 16.1 mph - N/A   Clear
5:35 PM 76.1 °F - 62.1 °F 62% 30.15 in 10.0 mi SSE 16.1 mph - N/A   Clear
5:55 PM 74.1 °F - 62.4 °F 67% 30.15 in 10.0 mi SSE 18.4 mph - N/A   Clear
6:15 PM 72.5 °F - 62.4 °F 71% 30.15 in 10.0 mi SSE 19.6 mph - N/A   Clear
6:35 PM 71.6 °F - 62.6 °F 73% 30.15 in 10.0 mi SSE 18.4 mph 24.2 mph N/A   Clear
6:55 PM 70.5 °F - 62.8 °F 76% 30.16 in 10.0 mi SSE 16.1 mph 20.7 mph N/A   Clear
7:15 PM 69.8 °F - 62.8 °F 78% 30.16 in 10.0 mi SSE 15.0 mph - N/A   Clear
7:35 PM 69.4 °F - 63.1 °F 80% 30.17 in 10.0 mi SSE 17.3 mph - N/A   Clear
7:55 PM 68.9 °F - 63.1 °F 82% 30.17 in 10.0 mi SSE 16.1 mph 20.7 mph N/A   Clear
8:15 PM 68.2 °F - 63.1 °F 84% 30.17 in 10.0 mi SSE 15.0 mph 18.4 mph N/A   Clear
8:35 PM 68.0 °F - 63.5 °F 85% 30.18 in 10.0 mi SSE 15.0 mph 19.6 mph N/A   Clear
8:55 PM 67.6 °F - 63.5 °F 87% 30.17 in 10.0 mi SSE 13.8 mph - N/A   Clear
9:15 PM 67.5 °F - 63.5 °F 87% 30.17 in 10.0 mi SSE 15.0 mph - N/A   Clear
9:35 PM 67.3 °F - 63.5 °F 88% 30.18 in 10.0 mi SSE 13.8 mph - N/A   Clear
9:55 PM 67.3 °F - 63.7 °F 88% 30.18 in 10.0 mi SSE 13.8 mph - N/A   Clear
10:15 PM 67.1 °F - 63.5 °F 88% 30.18 in 10.0 mi South 16.1 mph - N/A   Clear
10:35 PM 66.4 °F - 63.5 °F 90% 30.18 in 10.0 mi SSE 13.8 mph - N/A   Clear
10:55 PM 65.8 °F - 63.0 °F 90% 30.18 in 10.0 mi SSE 10.4 mph - N/A   Clear
11:15 PM 64.9 °F - 62.4 °F 92% 30.18 in 10.0 mi SSE 9.2 mph - N/A   Clear
11:35 PM 64.4 °F - 62.1 °F 92% 30.18 in 10.0 mi SSE 6.9 mph - N/A   Clear
11:55 PM 63.1 °F - 61.0 °F 93% 30.18 in 10.0 mi South 5.8 mph - N/A   Clear